Location: Black Forest
(43.4794°N, 75.0081°W)
Time: 01:37:18
(UTC-05:00)

ISS - All Passes

Search period start: 24 November 2014 00:00
Search period end: 04 December 2014 00:00
Orbit: 408 x 417 km, 51.6° (Epoch: 23 November)

Date Brightness Start Highest point End Pass type
(mag) Time Alt. Az. Time Alt. Az. Time Alt. Az.
24 Nov - 01:12:29 10° WSW 01:15:42 51° NNW 01:18:56 10° NE night (unlit)
24 Nov - 02:50:19 10° WNW 02:52:53 21° N 02:55:28 10° NE night (unlit)
24 Nov - 04:27:35 10° NW 04:30:19 23° NNE 04:33:03 10° ENE visible
24 Nov - 06:04:02 10° NW 06:07:21 81° NNE 06:10:39 10° ESE visible
24 Nov - 07:41:50 10° W 07:43:35 14° SW 07:45:20 10° SSW daylight
24 Nov - 22:48:04 10° SSE 22:49:41 13° SE 22:51:19 10° ESE night (unlit)
25 Nov - 00:22:37 10° WSW 00:25:54 83° NNW 00:29:13 10° ENE night (unlit)
25 Nov - 02:00:11 10° WNW 02:02:55 24° NNW 02:05:40 10° NE night (unlit)
25 Nov - 03:37:47 10° NW 03:40:21 20° N 03:42:55 10° ENE visible
25 Nov - 05:14:18 10° NW 05:17:32 50° NNE 05:20:46 10° ESE visible
25 Nov - 06:51:18 10° W 06:54:00 23° SW 06:56:41 10° S daylight
25 Nov - 23:32:53 10° SW 23:36:07 57° SE 23:39:22 10° ENE night (unlit)
26 Nov - 01:10:00 10° W 01:12:56 29° NNW 01:15:52 10° NE night (unlit)
26 Nov - 02:47:49 10° NW 02:50:18 19° N 02:52:47 10° NE night (unlit)
26 Nov - 04:24:33 10° NW 04:27:37 34° NNE 04:30:40 10° E visible
26 Nov - 06:01:10 10° WNW 06:04:18 40° SW 06:07:25 10° SSE visible
26 Nov - 22:43:22 10° SSW 22:46:20 32° SE 22:49:19 10° ENE night (unlit)
27 Nov - 00:19:48 10° W 00:22:56 39° NNW 00:26:04 10° NE night (unlit)
27 Nov - 01:57:42 10° NW 02:00:12 20° N 02:02:42 10° NE night (unlit)
27 Nov - 03:34:44 10° NW 03:37:35 26° NNE 03:40:27 10° ENE visible
27 Nov - 05:11:11 10° WNW 05:14:29 72° SW 05:17:46 10° SE visible
27 Nov - 21:54:12 10° S 21:56:35 19° SE 21:58:58 10° E night (unlit)
27 Nov - 23:29:41 10° WSW 23:32:56 60° NNW 23:36:12 10° NE night (unlit)
28 Nov - 01:07:26 10° WNW 01:10:03 21° N 01:12:40 10° NE night (unlit)
28 Nov - 02:44:49 10° NW 02:47:29 22° N 02:50:08 10° ENE night (unlit)
28 Nov - 04:21:16 10° NW 04:24:33 68° NNE 04:27:50 10° ESE visible
28 Nov - 05:58:41 10° W 06:00:51 16° SW 06:03:01 10° S visible
28 Nov - 21:06:02 10° SE 21:06:50 11° SE 21:07:37 10° ESE night (unlit)
28 Nov - 22:39:40 10° SW 22:42:57 82° SE 22:46:15 10° ENE night (unlit)
29 Nov - 00:17:05 10° WNW 00:19:53 25° NNW 00:22:42 10° NE night (unlit)
29 Nov - 01:54:46 10° NW 01:57:17 20° N 01:59:48 10° NE night (unlit)
29 Nov - 03:31:20 10° NW 03:34:30 43° NNE 03:37:41 10° E visible
29 Nov - 05:08:09 10° WNW 05:11:02 28° SW 05:13:55 10° SSE visible
29 Nov - 21:49:49 10° SW 21:52:59 46° SE 21:56:09 10° ENE night (unlit)
29 Nov - 23:26:41 10° W 23:29:42 32° NNW 23:32:43 10° NE night (unlit)
30 Nov - 01:04:33 10° NW 01:07:01 19° N 01:09:30 10° NE night (unlit)
30 Nov - 02:41:22 10° NW 02:44:22 31° NNE 02:47:21 10° E night (unlit)
30 Nov - 04:17:54 10° WNW 04:21:07 50° SW 04:24:18 10° SE visible
30 Nov - 21:00:13 10° SSW 21:03:01 26° SE 21:05:50 10° ENE night (unlit)
30 Nov - 22:36:20 10° W 22:39:31 45° NNW 22:42:42 10° NE night (unlit)
01 Dec - 00:14:11 10° NW 00:16:43 20° N 00:19:15 10° NE night (unlit)
01 Dec - 01:51:20 10° NW 01:54:07 24° NNE 01:56:54 10° ENE night (unlit)
01 Dec - 03:27:46 10° WNW 03:31:04 87° SSW 03:34:21 10° SE night (unlit)
01 Dec - 05:06:02 10° WSW 05:07:12 12° SW 05:08:23 10° SSW visible
01 Dec - 20:11:04 10° S 20:13:05 15° SE 20:15:06 10° E night (unlit)
01 Dec - 21:46:03 10° WSW 21:49:20 72° NNW 21:52:38 10° NE night (unlit)
01 Dec - 23:23:41 10° WNW 23:26:22 22° NNW 23:29:04 10° NE night (unlit)
02 Dec - 01:01:11 10° NW 01:03:47 21° N 01:06:23 10° ENE night (unlit)
02 Dec - 02:37:39 10° NW 02:40:54 57° NNE 02:44:09 10° ESE night (unlit)
02 Dec - 04:14:47 10° W 04:17:17 20° SW 04:19:46 10° S night (unlit)
02 Dec - 20:55:54 10° SW 20:59:10 67° SE 21:02:27 10° ENE night (unlit)
02 Dec - 22:33:07 10° WNW 22:36:00 27° NNW 22:38:54 10° NE night (unlit)
03 Dec - 00:10:53 10° NW 00:13:22 19° N 00:15:52 10° NE night (unlit)
03 Dec - 01:47:31 10° NW 01:50:38 38° NNE 01:53:44 10° E night (unlit)
03 Dec - 03:24:12 10° WNW 03:27:14 35° SW 03:30:15 10° SSE night (unlit)
03 Dec - 20:05:57 10° SSW 20:09:01 37° SE 20:12:05 10° ENE night (unlit)
03 Dec - 21:42:33 10° W 21:45:38 36° NNW 21:48:44 10° NE night (unlit)
03 Dec - 23:20:25 10° NW 23:22:54 19° N 23:25:23 10° NE night (unlit)
